Regional Weather Roundup
Issued by NWS

Home | Current Version | Previous Version | Graphics & Text | Print | Product List | Glossary On
Versions: 1 2 3 4 5 6 7 8 9 10 11 12 13 14 15 16 17 18 19 20 21 22 23 24 25 26 27 28 29 30 31 32 33 34 35 36 37 38 39 40 41 42 43 44 45 46 47 48 49 50
000
ASUS43 KBIS 011410
RWRND

NORTH DAKOTA REGIONAL WEATHER ROUNDUP
NATIONAL WEATHER SERVICE BISMARCK ND
900 AM CDT SUN MAY 01 2016

NOTE: "FAIR" INDICATES FEW OR NO CLOUDS BELOW 12,000 FEET WITH NO
SIGNIFICANT WEATHER AND/OR OBSTRUCTIONS TO VISIBILITY.


NDZ001>003-009>011-017-011500-
NORTHWEST NORTH DAKOTA

CITY           SKY/WX    TMP DP  RH WIND       PRES   REMARKS
WILLISTON      SUNNY     43  31  62 NE5       30.36R
MINOT          SUNNY     50  30  46 VRB3      30.34S
MINOT AFB      SUNNY     46  32  58 N3        30.33S
$$

NDZ018>021-031>035-040>046-011500-
SOUTHWEST NORTH DAKOTA

CITY           SKY/WX    TMP DP  RH WIND       PRES   REMARKS
BISMARCK       SUNNY     44  33  65 CALM      30.34S
DICKINSON      SUNNY     43  30  60 NW5       30.32R
GARRISON         N/A     47  34  60 CALM      30.34R
HETTINGER ARPT SUNNY     43  33  68 NW5       30.34S
$$

NDZ004>008-012>016-024-026-027-054-011500-
NORTHEAST NORTH DAKOTA

CITY           SKY/WX    TMP DP  RH WIND       PRES   REMARKS
GRAND FORKS    SUNNY     47  30  51 NE3       30.32S
GRND FRKS AFB  SUNNY     47  30  50 VRB3      30.32S
DEVILS LAKE    SUNNY     49  30  48 N5        30.34R
$$

NDZ022-023-025-028>030-036>039-047>053-011500-
SOUTHEAST NORTH DAKOTA

CITY           SKY/WX    TMP DP  RH WIND       PRES   REMARKS
FARGO          SUNNY     49  30  48 N5        30.30S
JAMESTOWN      SUNNY     46  31  55 NE6       30.31R
$$




USA.gov is the U.S. government's official web portal to all federal, state and local government web resources and services.